Regional Weather Roundup
Issued by NWS

Home | Current Version | Previous Version | Text Only | Print | Product List | Glossary Off
Versions: 1 2 3 4 5 6 7 8 9 10 11 12 13 14 15 16 17 18 19 20 21 22 23 24 25 26 27 28 29 30 31 32 33 34 35 36 37 38 39 40 41 42 43 44 45 46 47 48 49 50

000
ASUS43 KBIS 040210
RWRND

NORTH DAKOTA REGIONAL WEATHER ROUNDUP
NATIONAL WEATHER SERVICE BISMARCK ND
900 PM CDT THU SEP 03 2015

NOTE: "FAIR" INDICATES FEW OR NO CLOUDS BELOW 12,000 FEET WITH NO
SIGNIFICANT WEATHER AND/OR OBSTRUCTIONS TO VISIBILITY.


NDZ001>003-009>011-017-040300-
NORTHWEST NORTH DAKOTA

CITY           SKY/WX    TMP DP  RH WIND       PRES   REMARKS
WILLISTON      PTCLDY    76  55  48 N13       29.76R
MINOT          PTCLDY    77  67  71 NW10      29.68R
$$

NDZ018>021-031>035-040>046-040300-
SOUTHWEST NORTH DAKOTA

CITY           SKY/WX    TMP DP  RH WIND       PRES   REMARKS
BISMARCK       CLOUDY    90  48  23 S20       29.68S
DICKINSON      MOCLDY    77  56  48 NE6       29.73R
GARRISON         N/A     77  64  64 N8        29.69R
HETTINGER ARPT MOCLDY    72  52  49 CALM      29.74R
$$

NDZ004>008-012>016-024-026-027-054-040300-
NORTHEAST NORTH DAKOTA

CITY           SKY/WX    TMP DP  RH WIND       PRES   REMARKS
GRAND FORKS    PTCLDY    84  71  65 SE17      29.73R
GRND FRKS AFB  PTCLDY    84  73  69 SE16G24   29.73R HX  90
DEVILS LAKE    MOCLDY    84  64  51 S16G22    29.69R
$$

NDZ022-023-025-028>030-036>039-047>053-040300-
SOUTHEAST NORTH DAKOTA

CITY           SKY/WX    TMP DP  RH WIND       PRES   REMARKS
FARGO          CLEAR     83  73  72 SE14G23   29.77R
JAMESTOWN      CLOUDY    79  68  69 SE9       29.73R
$$




USA.gov is the U.S. government's official web portal to all federal, state and local government web resources and services.